AF5XJ Weather Reports


time (UTC)temp
C
wind
direction
speed
KPH
gust
KPH
rain 1hr
cm
rain 24hr
cm
rain mn
cm
humidity
%
barometer
mb
20260906212528 38 173 8.0 12.9 0.00 0.00 0.00 29
20260906211528 38 143 6.4 14.5 0.00 0.00 0.00 29
20260906210546 38 139 6.4 12.9 0.00 0.00 0.00 30
20260906205527 38 196 8.0 9.7 0.00 0.00 0.00 30
20260906204526 37 141 11.3 16.1 0.00 0.00 0.00 31
20260906203525 38 118 8.0 14.5 0.00 0.00 0.00 32
20260906202525 37 92 8.0 11.3 0.00 0.00 0.00 33
20260906201526 37 131 8.0 12.9 0.00 0.00 0.00 35
20260906200526 36 141 6.4 9.7 0.00 0.00 0.00 35
20260906195527 36 157 6.4 9.7 0.00 0.00 0.00 36
20260906194605 37 150 9.7 14.5 0.00 0.00 0.00 35
20260906193527 37 160 9.7 16.1 0.00 0.00 0.00 34
20260906192528 37 117 6.4 12.9 0.00 0.00 0.00 35
20260906191525 37 105 4.8 9.7 0.00 0.00 0.00 36
20260906190526 36 135 8.0 11.3 0.00 0.00 0.00 36
20260906185549 36 173 4.8 11.3 0.00 0.00 0.00 37
20260906184546 36 167 9.7 16.1 0.00 0.00 0.00 38
20260906183545 36 130 9.7 11.3 0.00 0.00 0.00 39
20260906182526 36 164 8.0 11.3 0.00 0.00 0.00 37
20260906181606 36 115 4.8 9.7 0.00 0.00 0.00 37
20260906180526 36 125 8.0 11.3 0.00 0.00 0.00 38
20260906175525 36 160 6.4 9.7 0.00 0.00 0.00 39
20260906174527 35 136 8.0 11.3 0.00 0.00 0.00 40
20260906173525 35 151 8.0 11.3 0.00 0.00 0.00 40
20260906172527 35 151 9.7 14.5 0.00 0.00 0.00 40
20260906171525 35 109 9.7 14.5 0.00 0.00 0.00 39
20260906170528 35 165 8.0 14.5 0.00 0.00 0.00 40
20260906165525 35 153 9.7 14.5 0.00 0.00 0.00 40
20260906164525 36 150 8.0 12.9 0.00 0.00 0.00 39
20260906163527 36 163 6.4 9.7 0.00 0.00 0.00 40
20260906162525 35 166 9.7 12.9 0.00 0.00 0.00 40
20260906161525 35 169 6.4 8.0 0.00 0.00 0.00 40
20260906160526 35 151 8.0 11.3 0.00 0.00 0.00 41
20260906155525 36 152 6.4 9.7 0.00 0.00 0.00 39
20260906154525 36 172 3.2 6.4 0.00 0.00 0.00 38
20260906153628 36 232 4.8 4.8 0.00 0.00 0.00 39
20260906152525 36 340 3.2 4.8 0.00 0.00 0.00 40
20260906151529 35 222 3.2 4.8 0.00 0.00 0.00 42
20260906150525 34 283 1.6 3.2 0.00 0.00 0.00 44
20260906145528 33 221 3.2 4.8 0.00 0.00 0.00 46
20260906144525 33 200 3.2 4.8 0.00 0.00 0.00 47
20260906143525 32 217 3.2 4.8 0.00 0.00 0.00 48
20260906142525 31 169 3.2 3.2 0.00 0.00 0.00 50
20260906141529 31 182 3.2 4.8 0.00 0.00 0.00 52
20260906140545 30 133 3.2 4.8 0.00 0.00 0.00 54
20260906135525 28 135 3.2 3.2 0.00 0.00 0.00 57
20260906134526 27 158 3.2 4.8 0.00 0.00 0.00 60
20260906133525 27 140 4.8 4.8 0.00 0.00 0.00 61
20260906132546 26 144 4.8 6.4 0.00 0.00 0.00 62
20260906131545 26 146 4.8 6.4 0.00 0.00 0.00 63
20260906130527 26 143 3.2 4.8 0.00 0.00 0.00 64
20260906125525 25 144 3.2 3.2 0.00 0.00 0.00 64
20260906124528 25 126 3.2 4.8 0.00 0.00 0.00 65
20260906123526 25 118 3.2 3.2 0.00 0.00 0.00 65
20260906122525 25 121 3.2 4.8 0.00 0.00 0.00 65
20260906121525 25 118 3.2 3.2 0.00 0.00 0.00 65
20260906120525 25 100 3.2 4.8 0.00 0.00 0.00 64
20260906115547 25 112 3.2 3.2 0.00 0.00 0.00 64
20260906114550 25 108 3.2 3.2 0.00 0.00 0.00 63
20260906113532 25 134 1.6 3.2 0.00 0.00 0.00 64
20260906112526 25 41 1.6 1.6 0.00 0.00 0.00 63
20260906111526 25 80 3.2 4.8 0.00 0.00 0.00 63
20260906110525 26 99 3.2 4.8 0.00 0.00 0.00 62
20260906105527 26 104 3.2 3.2 0.00 0.00 0.00 63
20260906104525 26 123 3.2 4.8 0.00 0.00 0.00 62
20260906103529 26 121 3.2 4.8 0.00 0.00 0.00 63
20260906102526 26 106 3.2 3.2 0.00 0.00 0.00 63
20260906101545 26 22 3.2 3.2 0.00 0.00 0.00 62
20260906100525 26 236 4.8 4.8 0.00 0.00 0.00 63
20260906095525 26 211 3.2 3.2 0.00 0.00 0.00 61
20260906094525 26 146 3.2 3.2 0.00 0.00 0.00 61
20260906093530 26 245 3.2 3.2 0.00 0.00 0.00 61
20260906092526 26 304 3.2 3.2 0.00 0.00 0.00 62
20260906091525 26 359 3.2 4.8 0.00 0.00 0.00 61
20260906090526 27 46 3.2 4.8 0.00 0.00 0.00 59
20260906085545 27 238 3.2 4.8 0.00 0.00 0.00 58
20260906084527 27 212 4.8 8.0 0.00 0.00 0.00 57
20260906083525 27 212 4.8 6.4 0.00 0.00 0.00 57
20260906082527 27 210 4.8 8.0 0.00 0.00 0.00 57
20260906081525 27 181 4.8 6.4 0.00 0.00 0.00 57
20260906080525 27 164 3.2 4.8 0.00 0.00 0.00 55
20260906075528 27 152 4.8 4.8 0.00 0.00 0.00 54
20260906074529 27 157 4.8 6.4 0.00 0.00 0.00 53
20260906073525 28 164 4.8 6.4 0.00 0.00 0.00 53
20260906072526 28 166 4.8 6.4 0.00 0.00 0.00 52
20260906071547 28 169 3.2 4.8 0.00 0.00 0.00 52
20260906070525 28 175 3.2 4.8 0.00 0.00 0.00 52
20260906065606 28 163 4.8 6.4 0.00 0.00 0.00 52
20260906064546 28 158 4.8 6.4 0.00 0.00 0.00 51
20260906063526 28 164 6.4 8.0 0.00 0.00 0.00 50
20260906062525 29 173 6.4 8.0 0.00 0.00 0.00 50
20260906061548 29 165 8.0 9.7 0.00 0.00 0.00 49
20260906060525 29 163 6.4 9.7 0.00 0.00 0.00 50
20260906055549 29 162 6.4 8.0 0.00 0.00 0.00 50
20260906054525 29 170 6.4 8.0 0.00 0.00 0.00 51
20260906053529 29 167 6.4 8.0 0.00 0.00 0.00 50
20260906052525 29 166 6.4 9.7 0.00 0.00 0.00 50
20260906051525 29 159 6.4 8.0 0.00 0.00 0.00 50
20260906050545 29 161 8.0 8.0 0.00 0.00 0.00 50
20260906045527 29 165 6.4 9.7 0.00 0.00 0.00 50
20260906044526 29 160 6.4 6.4 0.00 0.00 0.00 49
20260906043525 29 160 4.8 4.8 0.00 0.00 0.00 49
20260906042547 30 144 4.8 4.8 0.00 0.00 0.00 49
20260906041545 30 141 3.2 4.8 0.00 0.00 0.00 48
20260906040548 30 151 3.2 4.8 0.00 0.00 0.00 48
20260906035525 30 154 3.2 4.8 0.00 0.00 0.00 48
20260906034528 30 154 3.2 4.8 0.00 0.00 0.00 47
20260906033525 30 154 3.2 4.8 0.00 0.00 0.00 47
20260906032525 30 141 3.2 3.2 0.00 0.00 0.00 46
20260906031525 31 135 3.2 4.8 0.00 0.00 0.00 46
20260906030525 31 143 4.8 6.4 0.00 0.00 0.00 45
20260906025525 31 137 4.8 6.4 0.00 0.00 0.00 44
20260906024525 31 138 6.4 8.0 0.00 0.00 0.00 44
20260906023529 31 145 4.8 6.4 0.00 0.00 0.00 44
20260906022525 31 145 4.8 4.8 0.00 0.00 0.00 43
20260906021526 31 137 4.8 4.8 0.00 0.00 0.00 43
20260906020546 32 138 4.8 6.4 0.00 0.00 0.00 42
20260906015527 32 140 4.8 6.4 0.00 0.00 0.00 41
20260906014525 32 115 4.8 6.4 0.00 0.00 0.00 40
20260906013527 33 149 4.8 6.4 0.00 0.00 0.00 39
20260906012525 33 143 4.8 6.4 0.00 0.00 0.00 39
20260906011524 33 144 6.4 8.0 0.00 0.00 0.00 38
20260906010525 33 139 4.8 4.8 0.00 0.00 0.00 37
20260906005525 34 155 4.8 4.8 0.00 0.00 0.00 36
20260906004525 35 142 6.4 8.0 0.00 0.00 0.00 35
20260906003525 35 154 8.0 11.3 0.00 0.00 0.00 35
20260906002525 35 150 8.0 9.7 0.00 0.00 0.00 34
20260906001528 36 146 8.0 11.3 0.00 0.00 0.00 34
20260906000526 36 134 8.0 12.9 0.00 0.00 0.00 34
20260905235525 36 163 8.0 12.9 0.00 0.00 0.00 33
20260905234547 36 169 9.7 12.9 0.00 0.00 0.00 33
20260905233525 36 151 9.7 12.9 0.00 0.00 0.00 33
20260905232530 36 129 9.7 12.9 0.00 0.00 0.00 33
20260905231525 36 142 9.7 12.9 0.00 0.00 0.00 33
20260905230525 36 157 11.3 14.5 0.00 0.00 0.00 32
20260905225525 36 162 9.7 11.3 0.00 0.00 0.00 32
20260905224525 37 157 9.7 12.9 0.00 0.00 0.00 32
20260905223525 37 129 6.4 11.3 0.00 0.00 0.00 32
20260905222525 37 152 9.7 12.9 0.00 0.00 0.00 32
20260905221535 37 163 9.7 14.5 0.00 0.00 0.00 31
20260905220525 37 174 6.4 12.9 0.00 0.00 0.00 31
20260905215527 37 165 9.7 12.9 0.00 0.00 0.00 33
20260905214525 37 185 4.8 9.7 0.00 0.00 0.00 33
20260905213546 37 156 9.7 14.5 0.00 0.00 0.00 33